This is the latest recevied weather packets stored in our database for station/object KB2SKP. If no packets are shown the sender has not sent any weather packets the latest 10 day(s).
| Time | Temp. | Humidity | Pressure | Rain* | Wind** | Luminosity | Snow |
|---|---|---|---|---|---|---|---|
| 1777838747 | 15.56° C | 32% | 1011.7 hPa | 0 mm | - | 35 W/m² | - |
| 1777838444 | 15.56° C | 33% | 1011.6 hPa | 0 mm | - | 36 W/m² | - |
| 1777838141 | 15.56° C | 32% | 1011.6 hPa | 0 mm | - | 36 W/m² | - |
| 1777837838 | 16.11° C | 32% | 1011.7 hPa | 0 mm | - | 37 W/m² | - |
| 1777837535 | 15.56° C | 32% | 1011.8 hPa | 0 mm | - | 36 W/m² | - |
| 1777837236 | 16.11° C | 36% | 1011.8 hPa | 0 mm | - | 35 W/m² | - |
| 1777836933 | 15.56° C | 35% | 1011.9 hPa | 0 mm | - | 37 W/m² | - |
| 1777836628 | 15.56° C | 33% | 1012.1 hPa | 0 mm | - | 37 W/m² | - |
| 1777836324 | 15.56° C | 31% | 1012.2 hPa | 0 mm | - | 38 W/m² | - |
| 1777836020 | 16.11° C | 31% | 1012.2 hPa | 0 mm | - | 40 W/m² | - |
| 1777835717 | 15.56° C | 32% | 1012.3 hPa | 0 mm | - | 58 W/m² | - |
| 1777835414 | 15° C | 33% | 1012.2 hPa | 0 mm | - | 36 W/m² | - |
| 1777835110 | 15° C | 34% | 1012.5 hPa | 0 mm | - | 37 W/m² | - |
| 1777834808 | 15° C | 33% | 1012.5 hPa | 0 mm | - | 36 W/m² | - |
| 1777834503 | 15.56° C | 32% | 1012.3 hPa | 0 mm | - | 41 W/m² | - |
| 1777834198 | 15° C | 33% | 1012.5 hPa | 0 mm | - | 263 W/m² | - |
| 1777833895 | 14.44° C | 35% | 1012.4 hPa | 0 mm | - | 71 W/m² | - |
| 1777833591 | 15° C | 33% | 1012.5 hPa | 0 mm | - | 36 W/m² | - |
| 1777833288 | 15° C | 33% | 1012.6 hPa | 0 mm | - | 102 W/m² | - |
| 1777832985 | 15° C | 36% | 1012.4 hPa | 0 mm | - | 238 W/m² | - |
| 1777832684 | 15° C | 34% | 1012.6 hPa | 0 mm | - | 159 W/m² | - |
| 1777832381 | 15° C | 35% | 1012.4 hPa | 0 mm | - | 38 W/m² | - |
| 1777832078 | 13.89° C | 35% | 1012.4 hPa | 0 mm | - | 39 W/m² | - |
| 1777831774 | 14.44° C | 36% | 1012.5 hPa | 0 mm | - | 45 W/m² | - |
| 1777831472 | 14.44° C | 35% | 1012.6 hPa | 0 mm | - | 92 W/m² | - |
* Rain latest hour (hover to see other rain measurements)
** Current wind speed in m/s (hover to see current wind gust speed)